LXAVO ELLX-ELLX

Flight info

Callsign LXAVO
Flight time 1h 29m
Altitude 2000
Route VFR
Aircraft P28A/L-V/N

Departure

Time 2026-04-29 14:55
Airport Luxembourg-Findel International Airport (ELLX)

Arrival

Time 2026-04-29 16:24
Airport Luxembourg-Findel International Airport (ELLX)
Time Latitude Longitude Altitude Speed Heading
2026-04-29 14:43 49.62368 6.19373 1181 ft 0 kts 124°
2026-04-29 14:49 49.62353 6.19402 1181 ft 7 kts 153°
2026-04-29 14:49 49.62303 6.19446 1182 ft 8 kts 148°
2026-04-29 14:49 49.62273 6.19499 1177 ft 5 kts 60°
2026-04-29 14:49 49.62300 6.19570 1182 ft 11 kts 60°
2026-04-29 14:50 49.62330 6.19653 1183 ft 8 kts 60°
2026-04-29 14:50 49.62358 6.19729 1192 ft 14 kts 60°
2026-04-29 14:50 49.62391 6.19757 1194 ft 8 kts 322°
2026-04-29 14:50 49.62406 6.19774 1195 ft 2 kts 145°
2026-04-29 14:51 49.62404 6.19776 1195 ft 0 kts 144°
2026-04-29 14:53 49.62384 6.19784 1194 ft 8 kts 202°
2026-04-29 14:53 49.62345 6.19808 1194 ft 10 kts 146°
2026-04-29 14:53 49.62294 6.19737 1190 ft 15 kts 239°
2026-04-29 14:54 49.62237 6.19581 1181 ft 13 kts 241°
2026-04-29 14:54 49.62174 6.19562 1182 ft 12 kts 153°
2026-04-29 14:54 49.62099 6.19655 1186 ft 14 kts 94°
2026-04-29 14:54 49.62123 6.19751 1193 ft 15 kts 60°
2026-04-29 14:55 49.62261 6.20118 1258 ft 54 kts 59°
2026-04-29 14:55 49.62489 6.20712 1447 ft 73 kts 56°
2026-04-29 14:55 49.62763 6.21431 1676 ft 83 kts 62°
2026-04-29 14:55 49.63162 6.22068 1942 ft 94 kts 24°
2026-04-29 14:56 49.63871 6.21903 2060 ft 116 kts 350°
2026-04-29 14:56 49.64648 6.21483 2135 ft 120 kts 353°
2026-04-29 14:56 49.65438 6.21194 2183 ft 115 kts
2026-04-29 14:56 49.66232 6.21096 2197 ft 117 kts 359°
2026-04-29 14:57 49.67033 6.20920 2244 ft 117 kts 360°
2026-04-29 14:57 49.67851 6.20697 2219 ft 120 kts 355°
2026-04-29 14:57 49.68662 6.20405 2168 ft 119 kts 354°
2026-04-29 14:57 49.69457 6.20124 2086 ft 118 kts 355°
2026-04-29 14:58 49.70256 6.19848 2045 ft 117 kts 358°
2026-04-29 14:58 49.71066 6.19565 2027 ft 120 kts 359°
2026-04-29 14:58 49.71904 6.19298 1970 ft 123 kts 357°
2026-04-29 14:58 49.72739 6.19081 1968 ft 121 kts 358°
2026-04-29 14:59 49.73565 6.18885 1964 ft 117 kts 355°
2026-04-29 14:59 49.74348 6.18726 1972 ft 111 kts
2026-04-29 14:59 49.75000 6.19144 1942 ft 98 kts 54°
2026-04-29 14:59 49.75311 6.20021 1961 ft 88 kts 71°
2026-04-29 15:00 49.75507 6.20921 1970 ft 87 kts 71°
2026-04-29 15:00 49.75681 6.21856 1994 ft 92 kts 75°
2026-04-29 15:00 49.75840 6.22849 1964 ft 102 kts 75°
2026-04-29 15:00 49.75997 6.23923 2036 ft 100 kts 74°
2026-04-29 15:01 49.76181 6.24951 2121 ft 100 kts 75°
2026-04-29 15:01 49.76379 6.25995 2129 ft 104 kts 73°
2026-04-29 15:01 49.76549 6.27088 2151 ft 103 kts 77°
2026-04-29 15:01 49.76710 6.28162 2078 ft 108 kts 77°
2026-04-29 15:02 49.76886 6.29249 2107 ft 102 kts 76°
2026-04-29 15:02 49.77038 6.30288 2078 ft 99 kts 79°
2026-04-29 15:02 49.77149 6.31349 2112 ft 100 kts 86°
2026-04-29 15:02 49.77198 6.32430 2175 ft 102 kts 83°
2026-04-29 15:03 49.77286 6.33550 2198 ft 106 kts 81°
2026-04-29 15:03 49.77538 6.34588 2286 ft 104 kts 56°
2026-04-29 15:03 49.78039 6.35411 2326 ft 108 kts 52°
2026-04-29 15:03 49.78527 6.36252 2371 ft 103 kts 52°
2026-04-29 15:04 49.79006 6.37089 2305 ft 105 kts 56°
2026-04-29 15:04 49.79494 6.37965 2286 ft 108 kts 56°
2026-04-29 15:04 49.79990 6.38821 2279 ft 109 kts 50°
2026-04-29 15:04 49.80387 6.39797 2276 ft 107 kts 66°
2026-04-29 15:05 49.80658 6.40841 2321 ft 102 kts 69°
2026-04-29 15:05 49.80903 6.41899 2282 ft 104 kts 71°
2026-04-29 15:05 49.81150 6.42945 2235 ft 103 kts 69°
2026-04-29 15:05 49.81441 6.43965 2226 ft 105 kts 66°
2026-04-29 15:06 49.81741 6.44940 2199 ft 98 kts 64°
2026-04-29 15:06 49.82117 6.45810 2273 ft 96 kts 58°
2026-04-29 15:06 49.82500 6.46659 2319 ft 96 kts 59°
2026-04-29 15:06 49.82838 6.47528 2344 ft 94 kts 73°
2026-04-29 15:07 49.82814 6.48549 2319 ft 102 kts 101°
2026-04-29 15:07 49.82574 6.49596 2340 ft 104 kts 102°
2026-04-29 15:07 49.82373 6.50695 2354 ft 109 kts 98°
2026-04-29 15:07 49.82184 6.51855 2379 ft 112 kts 98°
2026-04-29 15:08 49.81984 6.53032 2426 ft 113 kts 99°
2026-04-29 15:08 49.81793 6.54192 2484 ft 112 kts 99°
2026-04-29 15:08 49.81599 6.55342 2520 ft 110 kts 109°
2026-04-29 15:08 49.80942 6.56035 2554 ft 127 kts 156°
2026-04-29 15:09 49.80038 6.56224 2556 ft 133 kts 163°
2026-04-29 15:09 49.79128 6.56413 2555 ft 133 kts 162°
2026-04-29 15:09 49.78223 6.56613 2642 ft 128 kts 162°
2026-04-29 15:09 49.77353 6.56809 2766 ft 124 kts 160°
2026-04-29 15:10 49.76513 6.57005 2882 ft 120 kts 159°
2026-04-29 15:10 49.75689 6.57198 2967 ft 121 kts 158°
2026-04-29 15:10 49.74837 6.57400 3008 ft 128 kts 159°
2026-04-29 15:10 49.73926 6.57613 3000 ft 133 kts 160°
2026-04-29 15:11 49.73064 6.57799 2997 ft 119 kts 160°
2026-04-29 15:11 49.72242 6.57994 2997 ft 121 kts 161°
2026-04-29 15:11 49.71383 6.58199 3008 ft 127 kts 162°
2026-04-29 15:11 49.70499 6.58402 3007 ft 130 kts 162°
2026-04-29 15:12 49.69603 6.58606 2996 ft 126 kts 162°
2026-04-29 15:12 49.69034 6.58735 3014 ft 126 kts 162°
2026-04-29 15:12 49.67836 6.59016 3011 ft 133 kts 161°
2026-04-29 15:12 49.66932 6.59222 2988 ft 124 kts 158°
2026-04-29 15:13 49.66107 6.59406 3002 ft 120 kts 159°
2026-04-29 15:13 49.65267 6.59607 3000 ft 124 kts 160°
2026-04-29 15:13 49.64395 6.59812 3010 ft 129 kts 162°
2026-04-29 15:13 49.63520 6.60010 2994 ft 121 kts 161°
2026-04-29 15:14 49.62693 6.60200 3010 ft 119 kts 162°
2026-04-29 15:14 49.61877 6.60389 2997 ft 121 kts 162°
2026-04-29 15:14 49.61071 6.60567 2993 ft 107 kts 159°
2026-04-29 15:14 49.60345 6.60741 2980 ft 110 kts 155°
2026-04-29 15:15 49.59551 6.60937 3003 ft 126 kts 160°
2026-04-29 15:15 49.58668 6.61137 3000 ft 129 kts 161°
2026-04-29 15:15 49.57788 6.61332 3006 ft 128 kts 162°
2026-04-29 15:15 49.56904 6.61535 3003 ft 130 kts 159°
2026-04-29 15:16 49.56000 6.61747 2996 ft 131 kts 161°
2026-04-29 15:16 49.55105 6.61947 3003 ft 130 kts 162°
2026-04-29 15:16 49.54209 6.62152 2998 ft 129 kts 161°
2026-04-29 15:16 49.53329 6.62354 3004 ft 129 kts 159°
2026-04-29 15:17 49.52433 6.62562 3002 ft 129 kts 161°
2026-04-29 15:17 49.51545 6.62765 2995 ft 129 kts 162°
2026-04-29 15:17 49.50674 6.62960 2998 ft 124 kts 161°
2026-04-29 15:17 49.49826 6.63156 2993 ft 121 kts 160°
2026-04-29 15:18 49.49013 6.63339 2996 ft 115 kts 159°
2026-04-29 15:18 49.48214 6.63527 2988 ft 117 kts 160°
2026-04-29 15:18 49.47412 6.63712 2987 ft 116 kts 161°
2026-04-29 15:18 49.46621 6.63894 2996 ft 118 kts 160°
2026-04-29 15:19 49.45805 6.64083 3002 ft 121 kts 159°
2026-04-29 15:19 49.44968 6.64273 3002 ft 121 kts 160°
2026-04-29 15:19 49.44134 6.64464 2997 ft 122 kts 161°
2026-04-29 15:19 49.43300 6.64653 2993 ft 120 kts 159°
2026-04-29 15:20 49.42496 6.64831 2986 ft 113 kts 158°
2026-04-29 15:20 49.41733 6.65009 2997 ft 111 kts 159°
2026-04-29 15:20 49.40963 6.65191 2995 ft 114 kts 159°
2026-04-29 15:20 49.40171 6.65373 3011 ft 119 kts 160°
2026-04-29 15:21 49.39350 6.65559 2999 ft 122 kts 159°
2026-04-29 15:21 49.38487 6.65758 3004 ft 127 kts 159°
2026-04-29 15:21 49.37624 6.65949 3001 ft 123 kts 159°
2026-04-29 15:21 49.36783 6.66138 2992 ft 121 kts 160°
2026-04-29 15:22 49.35941 6.66316 2924 ft 122 kts 162°
2026-04-29 15:22 49.35092 6.66440 2813 ft 121 kts 164°
2026-04-29 15:22 49.34293 6.66517 2624 ft 113 kts 164°
2026-04-29 15:22 49.33523 6.66600 2290 ft 111 kts 165°
2026-04-29 15:23 49.32777 6.66654 2081 ft 103 kts 166°
2026-04-29 15:23 49.32109 6.66452 1927 ft 104 kts 210°
2026-04-29 15:23 49.31695 6.65549 1772 ft 97 kts 233°
2026-04-29 15:23 49.31158 6.65173 1671 ft 85 kts 161°
2026-04-29 15:24 49.30904 6.65681 1521 ft 59 kts 74°
2026-04-29 15:24 49.31029 6.66233 1311 ft 57 kts 77°
2026-04-29 15:24 49.31124 6.66779 1148 ft 49 kts 71°
2026-04-29 15:24 49.31207 6.67240 1109 ft 35 kts 73°
2026-04-29 15:25 49.31260 6.67530 1109 ft 20 kts 70°
2026-04-29 15:25 49.31302 6.67581 1110 ft 8 kts 319°
2026-04-29 15:25 49.31292 6.67473 1109 ft 13 kts 256°
2026-04-29 15:25 49.31268 6.67342 1109 ft 12 kts 255°
2026-04-29 15:26 49.31247 6.67224 1111 ft 13 kts 257°
2026-04-29 15:26 49.31218 6.67063 1109 ft 17 kts 255°
2026-04-29 15:26 49.31195 6.66933 1109 ft 7 kts 263°
2026-04-29 15:26 49.31182 6.66903 1109 ft 0 kts 188°
2026-04-29 15:27 49.31156 6.66927 1108 ft 9 kts 116°
2026-04-29 15:28 49.31178 6.67073 1108 ft 35 kts 75°
2026-04-29 15:28 49.31227 6.67391 1185 ft 56 kts 73°
2026-04-29 15:28 49.31390 6.68284 1544 ft 71 kts 71°
2026-04-29 15:28 49.31564 6.69003 1963 ft 76 kts 71°
2026-04-29 15:29 49.31502 6.69886 2172 ft 85 kts 97°
2026-04-29 15:29 49.31267 6.71537 2812 ft 79 kts 96°
2026-04-29 15:30 49.31028 6.73154 3339 ft 73 kts 92°
2026-04-29 15:30 49.30938 6.73886 3630 ft 71 kts 95°
2026-04-29 15:30 49.30827 6.74633 3850 ft 72 kts 95°
2026-04-29 15:30 49.30723 6.75448 3905 ft 88 kts 96°
2026-04-29 15:31 49.30604 6.76421 3951 ft 98 kts 85°
2026-04-29 15:31 49.30745 6.77447 4002 ft 101 kts 76°
2026-04-29 15:31 49.30880 6.78538 4009 ft 106 kts 78°
2026-04-29 15:31 49.31006 6.79656 4013 ft 106 kts 79°
2026-04-29 15:32 49.31125 6.80770 4014 ft 107 kts 79°
2026-04-29 15:32 49.31247 6.81918 4010 ft 111 kts 79°
2026-04-29 15:32 49.31580 6.82919 4004 ft 112 kts 43°
2026-04-29 15:32 49.32216 6.83612 3996 ft 111 kts 42°
2026-04-29 15:33 49.32821 6.84321 3999 ft 109 kts 43°
2026-04-29 15:33 49.33427 6.85043 4004 ft 111 kts 44°
2026-04-29 15:33 49.34036 6.85776 4002 ft 111 kts 44°
2026-04-29 15:33 49.34638 6.86502 4005 ft 110 kts 44°
2026-04-29 15:34 49.35245 6.87237 4002 ft 112 kts 44°
2026-04-29 15:34 49.35862 6.87983 4012 ft 114 kts 44°
2026-04-29 15:34 49.36474 6.88725 4011 ft 114 kts 44°
2026-04-29 15:34 49.37105 6.89488 4008 ft 116 kts 43°
2026-04-29 15:35 49.37742 6.90261 4016 ft 117 kts 44°
2026-04-29 15:35 49.38380 6.91034 4019 ft 117 kts 43°
2026-04-29 15:35 49.39014 6.91798 4011 ft 113 kts 44°
2026-04-29 15:35 49.39623 6.92538 4004 ft 109 kts 44°
2026-04-29 15:36 49.40220 6.93262 4005 ft 109 kts 44°
2026-04-29 15:36 49.40818 6.93989 4005 ft 110 kts 44°
2026-04-29 15:36 49.41416 6.94718 4002 ft 110 kts 44°
2026-04-29 15:36 49.42014 6.95444 4002 ft 109 kts 44°
2026-04-29 15:37 49.42609 6.96166 4000 ft 109 kts 44°
2026-04-29 15:37 49.43206 6.96892 4009 ft 112 kts 45°
2026-04-29 15:37 49.43829 6.97652 4007 ft 114 kts 44°
2026-04-29 15:37 49.44450 6.98405 4018 ft 113 kts 44°
2026-04-29 15:38 49.45067 6.99155 4013 ft 112 kts 44°
2026-04-29 15:38 49.45664 6.99880 4009 ft 110 kts 43°
2026-04-29 15:38 49.46263 7.00612 4007 ft 109 kts 44°
2026-04-29 15:38 49.46863 7.01342 4013 ft 111 kts 44°
2026-04-29 15:39 49.47468 7.02082 4022 ft 113 kts 44°
2026-04-29 15:39 49.48083 7.02831 4021 ft 113 kts 45°
2026-04-29 15:39 49.48703 7.03584 4026 ft 114 kts 45°
2026-04-29 15:39 49.49327 7.04345 4029 ft 115 kts 44°
2026-04-29 15:40 49.49947 7.05101 4027 ft 113 kts 45°
2026-04-29 15:40 49.50557 7.05846 4033 ft 113 kts 44°
2026-04-29 15:40 49.51178 7.06604 4027 ft 113 kts 43°
2026-04-29 15:40 49.51805 7.07371 4029 ft 115 kts 44°
2026-04-29 15:41 49.52440 7.08147 4026 ft 117 kts 42°
2026-04-29 15:41 49.52876 7.08678 4028 ft 118 kts 43°
2026-04-29 15:41 49.53497 7.09436 4023 ft 114 kts 44°
2026-04-29 15:41 49.54109 7.10186 4023 ft 111 kts 44°
2026-04-29 15:42 49.54722 7.10935 4023 ft 112 kts 44°
2026-04-29 15:42 49.55331 7.11679 4018 ft 110 kts 43°
2026-04-29 15:42 49.55931 7.12413 4016 ft 110 kts 44°
2026-04-29 15:42 49.56521 7.13135 4017 ft 105 kts 45°
2026-04-29 15:43 49.57078 7.13812 4029 ft 103 kts 46°
2026-04-29 15:43 49.57644 7.14515 4042 ft 108 kts 44°
2026-04-29 15:43 49.58238 7.15242 4034 ft 109 kts 44°
2026-04-29 15:43 49.58824 7.15959 4025 ft 107 kts 43°
2026-04-29 15:44 49.59400 7.16661 4035 ft 106 kts 45°
2026-04-29 15:44 49.59985 7.17384 4036 ft 107 kts 45°
2026-04-29 15:44 49.60561 7.18089 4038 ft 105 kts 45°
2026-04-29 15:44 49.61136 7.18796 4042 ft 106 kts 45°
2026-04-29 15:45 49.61727 7.19522 4038 ft 111 kts 45°
2026-04-29 15:45 49.62318 7.20242 4039 ft 102 kts 44°
2026-04-29 15:45 49.62889 7.20949 4045 ft 110 kts 44°
2026-04-29 15:45 49.63491 7.21690 4042 ft 112 kts 43°
2026-04-29 15:46 49.64098 7.22434 4047 ft 111 kts 43°
2026-04-29 15:46 49.64714 7.23192 4031 ft 112 kts 43°
2026-04-29 15:46 49.65319 7.23937 4035 ft 110 kts 43°
2026-04-29 15:46 49.66018 7.24413 4030 ft 120 kts 10°
2026-04-29 15:47 49.66802 7.23817 4022 ft 141 kts 316°
2026-04-29 15:47 49.66971 7.22278 4033 ft 155 kts 263°
2026-04-29 15:47 49.66706 7.20656 4033 ft 153 kts 256°
2026-04-29 15:47 49.66453 7.19059 4038 ft 153 kts 257°
2026-04-29 15:48 49.66221 7.17485 4044 ft 152 kts 258°
2026-04-29 15:48 49.65989 7.15890 4051 ft 154 kts 258°
2026-04-29 15:48 49.65759 7.14274 4039 ft 152 kts 257°
2026-04-29 15:48 49.65529 7.12679 4037 ft 153 kts 259°
2026-04-29 15:49 49.65293 7.11055 4036 ft 156 kts 258°
2026-04-29 15:49 49.65061 7.09437 4036 ft 154 kts 258°
2026-04-29 15:49 49.64825 7.07821 4033 ft 154 kts 258°
2026-04-29 15:49 49.64594 7.06227 4034 ft 152 kts 258°
2026-04-29 15:50 49.64365 7.04650 4034 ft 150 kts 258°
2026-04-29 15:50 49.64135 7.03070 4036 ft 153 kts 258°
2026-04-29 15:50 49.63901 7.01458 3993 ft 153 kts 259°
2026-04-29 15:50 49.63672 6.99902 4012 ft 148 kts 259°
2026-04-29 15:51 49.63452 6.98384 4007 ft 147 kts 259°
2026-04-29 15:51 49.63233 6.96868 4016 ft 145 kts 258°
2026-04-29 15:51 49.63005 6.95315 4014 ft 151 kts 259°
2026-04-29 15:51 49.62774 6.93730 4007 ft 150 kts 259°
2026-04-29 15:52 49.62539 6.92128 4013 ft 156 kts 259°
2026-04-29 15:52 49.62298 6.90473 4018 ft 158 kts 258°
2026-04-29 15:52 49.62055 6.88820 4014 ft 159 kts 258°
2026-04-29 15:52 49.61808 6.87140 4008 ft 159 kts 258°
2026-04-29 15:53 49.61566 6.85496 4017 ft 160 kts 258°
2026-04-29 15:53 49.61320 6.83821 4002 ft 159 kts 258°
2026-04-29 15:53 49.61079 6.82183 4001 ft 156 kts 257°
2026-04-29 15:53 49.60839 6.80556 4000 ft 155 kts 257°
2026-04-29 15:54 49.60599 6.78936 3996 ft 155 kts 258°
2026-04-29 15:54 49.60363 6.77328 4000 ft 153 kts 258°
2026-04-29 15:54 49.60125 6.75731 4001 ft 151 kts 257°
2026-04-29 15:54 49.59891 6.74145 4006 ft 153 kts 256°
2026-04-29 15:55 49.59653 6.72530 4000 ft 156 kts 257°
2026-04-29 15:55 49.59411 6.70903 4002 ft 155 kts 257°
2026-04-29 15:55 49.59168 6.69276 3994 ft 156 kts 258°
2026-04-29 15:55 49.58928 6.67660 4001 ft 155 kts 257°
2026-04-29 15:56 49.58690 6.66050 4002 ft 157 kts 257°
2026-04-29 15:56 49.58447 6.64422 4008 ft 156 kts 258°
2026-04-29 15:56 49.58203 6.62791 4003 ft 157 kts 257°
2026-04-29 15:56 49.57956 6.61132 4000 ft 158 kts 257°
2026-04-29 15:57 49.57711 6.59492 3996 ft 156 kts 257°
2026-04-29 15:57 49.57466 6.57850 4010 ft 159 kts 258°
2026-04-29 15:57 49.57217 6.56187 4008 ft 159 kts 258°
2026-04-29 15:57 49.56967 6.54523 4013 ft 159 kts 258°
2026-04-29 15:58 49.56721 6.52891 4009 ft 156 kts 257°
2026-04-29 15:58 49.56479 6.51278 4015 ft 155 kts 258°
2026-04-29 15:58 49.56236 6.49654 4020 ft 156 kts 257°
2026-04-29 15:58 49.55989 6.48014 4020 ft 158 kts 257°
2026-04-29 15:59 49.55741 6.46364 4020 ft 157 kts 257°
2026-04-29 15:59 49.55492 6.44721 4015 ft 157 kts 257°
2026-04-29 15:59 49.55245 6.43086 4014 ft 156 kts 257°
2026-04-29 15:59 49.55000 6.41461 4018 ft 156 kts 257°
2026-04-29 16:00 49.54755 6.39846 4010 ft 156 kts 257°
2026-04-29 16:00 49.54507 6.38201 4021 ft 156 kts 257°
2026-04-29 16:00 49.54266 6.36601 4053 ft 155 kts 257°
2026-04-29 16:00 49.54011 6.34994 4079 ft 154 kts 252°
2026-04-29 16:01 49.53590 6.33436 4030 ft 157 kts 244°
2026-04-29 16:01 49.53144 6.31920 4022 ft 158 kts 242°
2026-04-29 16:01 49.52719 6.30364 4013 ft 157 kts 247°
2026-04-29 16:01 49.52328 6.28815 4028 ft 156 kts 247°
2026-04-29 16:02 49.51946 6.27250 3989 ft 155 kts 249°
2026-04-29 16:02 49.51581 6.25682 4008 ft 157 kts 250°
2026-04-29 16:02 49.51222 6.24080 3981 ft 159 kts 250°
2026-04-29 16:02 49.50833 6.22511 4007 ft 157 kts 248°
2026-04-29 16:03 49.50459 6.20920 3959 ft 159 kts 251°
2026-04-29 16:03 49.50102 6.19316 3906 ft 159 kts 249°
2026-04-29 16:03 49.49729 6.17770 3932 ft 155 kts 248°
2026-04-29 16:03 49.49265 6.16278 3952 ft 155 kts 239°
2026-04-29 16:04 49.48748 6.14831 3948 ft 154 kts 238°
2026-04-29 16:04 49.48231 6.13379 3954 ft 156 kts 238°
2026-04-29 16:04 49.47721 6.11917 3958 ft 155 kts 240°
2026-04-29 16:04 49.47236 6.10438 3960 ft 154 kts 245°
2026-04-29 16:05 49.46903 6.08887 3978 ft 153 kts 257°
2026-04-29 16:05 49.46696 6.07290 4001 ft 152 kts 259°
2026-04-29 16:05 49.46521 6.05669 3956 ft 153 kts 262°
2026-04-29 16:05 49.46497 6.04025 3851 ft 154 kts 279°
2026-04-29 16:06 49.46677 6.02463 3927 ft 148 kts 284°
2026-04-29 16:06 49.46876 6.00911 3914 ft 150 kts 287°
2026-04-29 16:06 49.47113 5.99338 3897 ft 152 kts 287°
2026-04-29 16:06 49.47433 5.97790 3826 ft 149 kts 310°
2026-04-29 16:07 49.48221 5.97195 3829 ft 118 kts 18°
2026-04-29 16:07 49.48824 5.97864 3881 ft 104 kts 57°
2026-04-29 16:07 49.49243 5.98753 3918 ft 102 kts 53°
2026-04-29 16:07 49.49995 5.98985 3908 ft 127 kts 356°
2026-04-29 16:08 49.50783 5.98214 3877 ft 145 kts 322°
2026-04-29 16:08 49.51410 5.96953 3828 ft 147 kts 312°
2026-04-29 16:08 49.52007 5.95668 3715 ft 152 kts 314°
2026-04-29 16:08 49.52567 5.94283 3541 ft 158 kts 294°
2026-04-29 16:09 49.52770 5.92621 3402 ft 158 kts 284°
2026-04-29 16:09 49.52973 5.90957 3302 ft 156 kts 285°
2026-04-29 16:09 49.53185 5.89337 3198 ft 154 kts 294°
2026-04-29 16:09 49.53773 5.88042 3092 ft 145 kts 327°
2026-04-29 16:10 49.54547 5.87108 2993 ft 136 kts 342°
2026-04-29 16:10 49.55389 5.86882 2969 ft 116 kts 18°
2026-04-29 16:10 49.56098 5.87345 2985 ft 107 kts 42°
2026-04-29 16:10 49.56683 5.88030 2996 ft 104 kts 45°
2026-04-29 16:11 49.57263 5.88733 2916 ft 108 kts 47°
2026-04-29 16:11 49.57824 5.89463 2927 ft 104 kts 49°
2026-04-29 16:11 49.58344 5.90230 2902 ft 104 kts 51°
2026-04-29 16:11 49.58846 5.91035 2950 ft 105 kts 50°
2026-04-29 16:12 49.59343 5.91816 3001 ft 101 kts 51°
2026-04-29 16:12 49.59686 5.92304 2934 ft 104 kts 43°
2026-04-29 16:12 49.60549 5.93030 2958 ft 104 kts 40°
2026-04-29 16:12 49.61152 5.93628 2968 ft 104 kts 40°
2026-04-29 16:13 49.61770 5.94227 2967 ft 105 kts 39°
2026-04-29 16:13 49.62391 5.94840 2958 ft 105 kts 41°
2026-04-29 16:13 49.62999 5.95462 2951 ft 104 kts 41°
2026-04-29 16:13 49.63625 5.96059 2943 ft 106 kts 39°
2026-04-29 16:14 49.64257 5.96643 2967 ft 106 kts 38°
2026-04-29 16:14 49.64893 5.97234 2957 ft 108 kts 38°
2026-04-29 16:14 49.65535 5.97815 2953 ft 106 kts 37°
2026-04-29 16:14 49.66157 5.98380 2972 ft 102 kts 38°
2026-04-29 16:15 49.66759 5.98934 2995 ft 100 kts 39°
2026-04-29 16:15 49.67350 5.99513 3024 ft 101 kts 39°
2026-04-29 16:15 49.67956 6.00100 3041 ft 104 kts 39°
2026-04-29 16:15 49.68572 6.00688 3103 ft 104 kts 39°
2026-04-29 16:16 49.69213 6.01270 3085 ft 109 kts 39°
2026-04-29 16:16 49.69858 6.01864 3022 ft 105 kts 39°
2026-04-29 16:16 49.70462 6.02493 2835 ft 105 kts 44°
2026-04-29 16:16 49.71062 6.03153 2624 ft 109 kts 41°
2026-04-29 16:17 49.71679 6.03816 2538 ft 110 kts 42°
2026-04-29 16:17 49.72315 6.04506 2461 ft 112 kts 44°
2026-04-29 16:17 49.72916 6.05231 2398 ft 108 kts 47°
2026-04-29 16:17 49.73477 6.05973 2286 ft 103 kts 48°
2026-04-29 16:18 49.73988 6.06735 2186 ft 103 kts 49°
2026-04-29 16:18 49.74489 6.07554 2098 ft 106 kts 52°
2026-04-29 16:18 49.74976 6.08425 2040 ft 108 kts 54°
2026-04-29 16:18 49.75304 6.09383 2004 ft 98 kts 88°
2026-04-29 16:19 49.75144 6.10416 1999 ft 99 kts 107°
2026-04-29 16:19 49.74791 6.11356 2053 ft 106 kts 128°
2026-04-29 16:19 49.74147 6.11982 2086 ft 112 kts 140°
2026-04-29 16:19 49.73468 6.12557 2138 ft 113 kts 145°
2026-04-29 16:20 49.72724 6.13044 2073 ft 116 kts 146°
2026-04-29 16:20 49.71992 6.13583 2074 ft 115 kts 147°
2026-04-29 16:20 49.71237 6.14087 2097 ft 122 kts 148°
2026-04-29 16:20 49.70462 6.14630 2029 ft 117 kts 143°
2026-04-29 16:21 49.69784 6.15263 2021 ft 114 kts 141°
2026-04-29 16:21 49.69110 6.15865 1971 ft 106 kts 141°
2026-04-29 16:21 49.68463 6.16419 2049 ft 108 kts 140°
2026-04-29 16:21 49.67803 6.17032 2070 ft 114 kts 142°
2026-04-29 16:22 49.67090 6.17624 2035 ft 117 kts 148°
2026-04-29 16:22 49.66334 6.18083 2081 ft 114 kts 148°
2026-04-29 16:22 49.65620 6.18501 2043 ft 105 kts 152°
2026-04-29 16:22 49.64930 6.18889 1915 ft 101 kts 152°
2026-04-29 16:23 49.64265 6.18983 1885 ft 100 kts 184°
2026-04-29 16:23 49.63627 6.18541 1803 ft 101 kts 192°
2026-04-29 16:23 49.63007 6.18140 1708 ft 91 kts 179°
2026-04-29 16:23 49.62407 6.17975 1548 ft 85 kts 175°
2026-04-29 16:24 49.61855 6.17997 1422 ft 72 kts 138°
2026-04-29 16:24 49.61704 6.18543 1298 ft 54 kts 70°
2026-04-29 16:24 49.61799 6.18877 1199 ft 50 kts 63°
2026-04-29 16:24 49.61944 6.19266 1166 ft 32 kts 60°
2026-04-29 16:25 49.62034 6.19512 1175 ft 22 kts 60°
2026-04-29 16:25 49.62126 6.19603 1185 ft 15 kts 337°
2026-04-29 16:25 49.62228 6.19516 1177 ft 13 kts 329°
2026-04-29 16:25 49.62288 6.19461 1181 ft 8 kts 327°
2026-04-29 16:26 49.62333 6.19418 1182 ft 7 kts 331°
2026-04-29 16:26 49.62365 6.19373 1181 ft 6 kts 298°
2026-04-29 16:26 49.62371 6.19377 1181 ft 0 kts 130°